STARLINK-1093 (44970 NORAD) Tracking and Keplerian Element Data

This shows tracking and keplerian element data for the satellite.

Feedback or suggestion? Click here.




ElementValue
Catalog44970
NameSTARLINK-1093
Epoch Orbit652
Epoch Day48.41667824
Epoch Year2020
RAAN191.2435
Inclination52.9956
Eccentricity0.0001514
Argument of Perigee43.0999
Mean Anonmoly52.7289
Mean Motion15.73157637
Decay Rate0.00400083
L11 44970U 20001BJ 20048.41667824 .00400083 00000-0 27257-2 0 9999
L22 44970 52.9956 191.2435 0001514 43.0999 52.7289 15.73157637 6523

Live tracking and technical data element details for STARLINK-1093 (NORAD 44970). STARLINK-1093 can be tracked NOW for your location showing map with azimuth and elevation plus other details from your city location.

Track the satellite on the map from your city or location and see movement details for azimuth, elevation, latitude, longitude, range, height, and movement on the map or in text.







IsCatalogInMostPopularTable: catalog: 44970, numindb: 9
Update: records affected: 1



GetName: 44970 STARLINK-1093

Hit Count: updated at: Tue, 18 Feb 2020 01:52:55 GMT